Regional Weather Roundup
Issued by NWS San Diego, CA

Home | Current Version | Previous Version | Text Only | Print | Product List | Glossary On
Versions: 1 2 3 4 5 6 7 8 9 10 11 12 13 14 15 16 17 18 19 20 21 22 23 24 25 26 27 28 29 30 31 32 33 34 35 36 37 38 39 40 41 42 43 44 45 46 47 48 49 50
000
ASUS46 KSGX 202011
RWRSGX

SAN DIEGO HOURLY WEATHER ROUNDUP
NATIONAL WEATHER SERVICE SAN DIEGO CA
1200 PM PST MON FEB 20 2017

NOTE: "FAIR" INDICATES FEW OR NO CLOUDS BELOW 12,000 FEET WITH NO
SIGNIFICANT WEATHER AND/OR OBSTRUCTIONS TO VISIBILITY.

CAZ042-043-060-061-PZZ750-775-202100-

GREATER SAN DIEGO AREA

CITY           SKY/WX    TMP DP  RH WIND       PRES   REMARKS
SAN DIEGO AP   CLOUDY    65  48  54 S7        30.27F
NATIONAL CITY    N/A     67  53  61 W3        30.26F
CHULA VISTA      N/A     69  55  59 W7        30.18F
IMPERIAL BEACH CLOUDY   N/A N/A N/A W9        30.26F
BROWN FIELD    PTSUNNY   67  52  58 N5        30.25F
MIRAMAR MCAS   MOSUNNY   69  53  56 CALM      30.25F
MONTGOMERY FLD LGT RAIN  65  49  56 CALM      30.26F

$$

NORTH SAN DIEGO COUNTY

CITY           SKY/WX    TMP DP  RH WIND       PRES   REMARKS
CAMP PENDLETON PTSUNNY   64  52  64 S5        30.26F
OCEANSIDE AP   PTSUNNY   65  52  62 W3        30.25F
OCEANSIDE HBR    N/A     60  51  71 NW3       30.29F
VISTA            N/A     63  53  72 W2        30.25F
CARLSBAD       PTSUNNY   63  50  62 W5        30.25F
DEL MAR          N/A     65  54  68 W2        30.28F
LA JOLLA SCRIP   N/A     62  52  71 W2        30.26F
FALLBROOK        N/A     63  55  75 SW5       30.25F
ESCONDIDO        N/A     66  52  59 W3        30.27F
SAN MARCOS       N/A     65  52  62 CALM      30.27F
POWAY            N/A     67  54  63 CALM      30.28F

$$

EAST SAN DIEGO COUNTY

CITY           SKY/WX    TMP DP  RH WIND       PRES   REMARKS
RAMONA         MOSUNNY   63  53  70 CALM      30.25F
SANTEE LAKES     N/A     67  54  63 CALM      30.25F
LA MESA          N/A     65  52  63 CALM      30.21F
JAMUL            N/A     65  54  68 CALM      30.27F
DESCANSO N       N/A     53  49  86 W3        30.26F
CAMPO            N/A     59  52  77 VRB5      30.23F

$$

ORANGE COUNTY AND THE LOS ANGELES BASIN

CITY           SKY/WX    TMP DP  RH WIND       PRES   REMARKS
JOHN WAYNE AP  CLOUDY    62  52  69 SW6       30.26F
LAGUNA BEACH     N/A     62  54  74 S7        30.22F
LAKE FOREST FR   N/A     64  51  62 CALM      30.17F
HUNTINGTON BCH   N/A     62  54  75 S3        30.29F
LOS ALAMITOS   CLOUDY    61  53  75 SE5       30.27F
FULLERTON      CLOUDY    62  52  69 E5        30.26F
LONG BEACH     CLOUDY    60  51  72 S8        30.27F
L.A. AP        CLOUDY    58  54  86 SE13      30.27F FOG
L.A. DOWNTOWN  CLOUDY    60  53  77 VRB6      30.27S

$$

THE INLAND EMPIRE

CITY           SKY/WX    TMP DP  RH WIND       PRES   REMARKS
CORONA         CLOUDY    61  52  72 CALM      30.27F
CHINO          PTSUNNY   62  52  69 CALM      30.28F
ONTARIO        CLOUDY    59  51  75 NE5       30.27F
RIVERSIDE AP   CLOUDY    61  52  72 W5        30.26F
MORENO VALLEY    N/A     60  55  84 S3        28.37S
MARCH ARB      CLOUDY    58  53  83 CALM      30.26F
HORSETHIEF CYN   N/A     75  62  64 CALM      30.24F
PERRIS           N/A     58  52  80 S2        30.29F
HEMET EAST       N/A     59  47  65 CALM      30.32F
FRENCH VALLEY  CLOUDY    61  46  59 CALM      30.26F
TEMECULA         N/A     63  53  70 CALM      30.29F

$$

SAN BERNARDINO AND RIVERSIDE COUNTY MOUNTAINS

CITY           SKY/WX    TMP DP  RH WIND       PRES   REMARKS
BIG BEAR AP    PTSUNNY   46  37  71 SW7G21    30.29F
ANGELUS OAKS     N/A     46  44  93 CALM      30.26F
PINE COVE        N/A     48  48 100 SW3       30.31F

$$

SOUTHERN DESERT INCLUDING THE COACHELLA VALLEY

CITY           SKY/WX    TMP DP  RH WIND       PRES   REMARKS
PALM SPRINGS   MOSUNNY   66  52  60 VRB7      30.24F
PALM DESERT      N/A     69  52  54 CALM        N/A
THERMAL        SUNNY     67  51  56 VRB5      30.22F
BLYTHE         SUNNY     67  52  58 SE10      30.23F
IMPERIAL AP    SUNNY     68  54  60 E5        30.22F
EL CENTRO NAS  SUNNY     68  49  50 SE5       30.24F
YUMA AZ        SUNNY     68  51  54 S6        30.24
MEXICALI       SUNNY     64  55  72 SE5       30.25F

$$

UPPER DESERT

CITY           SKY/WX    TMP DP  RH WIND       PRES   REMARKS
VICTORVILLE AP MOSUNNY   61  46  59 S9        30.20F
HESPERIA         N/A     59  49  70 W25       30.33S
PALMDALE       SUNNY     60  51  72 W18       30.18F
LANCASTER      PTSUNNY   58  49  72 SW17G25   30.19F
EDWARDS AFB    MOSUNNY   60  49  66 SW24G30   30.15F
DAGGETT        SUNNY     63  45  51 SW3       30.18F
29 PALMS N     SUNNY     62  45  53 SE13      30.27F
NEEDLES        CLOUDY    66  49  54 SE8       30.23F

$$

REGIONAL REPORTS

CITY           SKY/WX    TMP DP  RH WIND       PRES   REMARKS
SANTA BARBARA  CLOUDY    58  56  93 E13       30.23F FOG
SANDBERG       LGT RAIN  46  45  96 S16       30.23R VSB<1/4
LAS VEGAS NV   CLOUDY    61  45  55 S14G21    30.14F
PHOENIX AZ     PTSUNNY   64  45  49 S3        30.24F
TIJUANA        MOSUNNY   66  48  52 CALM      30.28F

$$

OFFSHORE ISLANDS

CITY           SKY/WX    TMP DP  RH WIND       PRES   REMARKS
CATALINA ARPT  FOG       52  52 100 SE12      30.25F VSB<1/4
SAN NICOLAS IS CLOUDY   N/A N/A N/A S8        30.23F

$$

MARINE AND OFFSHORE BUOY REPORTS

STATION/POSITION SKY/WX   TEMP    WIND        PRES    VSBY  SWELL
                          AIR SEA DIR/SP/G                  HT/PER/DIR
                          (F)     (DEG/KT/KT) (MB)    (MI)  (FT/S/D)
TANNER BANKS               59 60  160/ 10/ 12 1023.7F         7/290/17
S CLEMENTE BASIN           57 59  170/  8/ 10 1024.8F         7/250/12
SAN NICOLAS IS.               56                N/A           7/300/17
SO. S. ROSA ISLA           58 57  170/  8/ 10 1022.8F         8/310/17
W. S. BARBARA CH           55 55  120/ 19/ 25 1022.3F         8/310/16
M. S. BARBARA CH                  100/ 17/ 23 1024.3S
S. MONICA BASIN            57 58  120/ 16/ 19 1024.0F         5/250/13
S PEDRO CHANNEL               59                N/A           3/260/13
CMP PENDLETON NS              60                N/A           2/240/13
OCEANSIDE OFFSHR              60                N/A           2/250/13
TORREY PINES OTR              60                N/A           3/250/13
POINT LOMA SOUTH              60                N/A           5/250/13

$$




USA.gov is the U.S. government's official web portal to all federal, state and local government web resources and services.